[[{"header":{"parameterUnit":"m.s-1","parameterCategory":1,"la1":30.2991,"la2":30.254,"lo1":-89.0895,"lo2":-89.0444,"dy":0.0017,"dx":0.0017,"nx":28,"ny":28,"refTime":"2025-04-25T21:00:00:Z","depth":0,"parameterNumber":2,"parameterNumberName":"U-component_of_WINDS"},"data":[0,0,0,0,0,0,0,0,0,0,0,0,0,0,0,0,0,0,0,0,0,0,0,0,0,0,0,0,0,0,0,0,0,0,0,0,0,0,0,0,0,0,0,0,0,0,0,0,0,0,0,0,0,0,0,0,0,0,0.9456,0.9456,0,0.947,0.9471,0.9471,0.9475,0.9475,0.9474,0.9474,0.9487,0.9488,0.9488,0,0,0,0,0,0,0,0,0,0,0,0,0,0.9431,0.9432,0.9456,0.9456,0.9456,0.947,0.9471,0.9471,0.9475,0.9475,0.9474,0.9474,0.9487,0.9488,0.9488,0,0,0,0,0,0,0,0,0,0,0,0,0,0.9444,0.9432,0.9456,0.946,0.9461,0.947,0.9471,0.9471,0.9475,0.9475,0.9474,0.9474,0.9487,0.9488,0.9488,0.9494,0,0,0.949,0.949,0,0,0,0,0,0,0,0,0.9443,0.9444,0.9459,0.946,0.946,0.9471,0.9467,0.9479,0.9475,0.9469,0.9474,0.9474,0.9482,0.9483,0.9486,0.9495,0.9496,0.949,0.9491,0.9491,0.9491,0,0,0,0,0,0,0,0.9442,0.9444,0.9462,0.9459,0.946,0.9461,0.9463,0.9469,0.9476,0.947,0.947,0.9472,0.9482,0.9485,0.9486,0.9496,0.949,0.9491,0.9491,0.9491,0.9513,0.9513,0,0,0,0,0,0,0.9441,0.9443,0.9461,0.9462,0.9451,0.9462,0.9463,0.9467,0.9476,0.9477,0.9472,0.9472,0.9484,0.9485,0.9486,0.9495,0.9491,0.9491,0.9492,0.9513,0.9513,0.9513,0,0,0,0,0,0,0.944,0.9442,0.9461,0.9453,0.9455,0.9462,0.9467,0.9468,0.9471,0.9478,0.9479,0.9474,0.9484,0.9486,0.9493,0.9496,0.9492,0.9492,0.9513,0.9513,0.9513,0.9512,0,0,0,0,0,0,0.9439,0.9442,0.9444,0.9453,0.9456,0.9467,0.9467,0.9468,0.9472,0.9472,0.948,0.9481,0.9484,0.9492,0.9494,0.9497,0.9493,0.9512,0.9513,0.9513,0.9512,0.9513,0.9513,0,0,0,0,0,0.9438,0.9443,0.9444,0.9446,0.9459,0.9467,0.9469,0.9473,0.9472,0.9475,0.948,0.948,0.9496,0.9493,0.9495,0.9498,0.9512,0.9513,0.9513,0.9512,0.9513,0.9513,0,0,0,0,0,0,0.9433,0.9444,0.9446,0.9453,0.9459,0.9468,0.9471,0.9473,0.9479,0.9479,0.9484,0.9485,0.9492,0.9496,0.9493,0.9505,0.9504,0.9505,0.9502,0.9503,0.9503,0.9502,0.9493,0,0,0,0,0,0.9433,0.9439,0.9448,0.9453,0.9457,0.9463,0.9467,0.947,0.9476,0.9479,0.9484,0.949,0.9496,0.95,0.9506,0.9513,0.9515,0.9516,0.9517,0.9517,0.9518,0.9523,0.9524,0.9515,0.9515,0.9515,0,0,0.9432,0.9439,0.9442,0.9452,0.9458,0.9464,0.9465,0.9471,0.9476,0.948,0.9487,0.9491,0.9498,0.9506,0.951,0.9509,0.9521,0.9518,0.9518,0.9518,0.9524,0.9525,0.9525,0.9515,0.9515,0.9515,0,0,0.9433,0.9439,0.9445,0.9451,0.9459,0.9464,0.9466,0.9475,0.9478,0.9486,0.9489,0.9495,0.9505,0.9511,0.9515,0.9521,0.9523,0.9523,0.9525,0.953,0.9531,0.9532,0.9535,0.9536,0.9524,0.9524,0.9524,0,0.9431,0.9441,0.9447,0.9454,0.9459,0.9464,0.947,0.9476,0.9485,0.9489,0.9488,0.9503,0.9508,0.9517,0.9519,0.9522,0.9524,0.9522,0.9531,0.9531,0.9532,0.9535,0.9536,0.9524,0.9524,0.9524,0.9524,0,0.9438,0.9445,0.9449,0.946,0.9465,0.9472,0.9479,0.9484,0.9487,0.9492,0.9501,0.9508,0.9516,0.9519,0.9521,0.953,0.9529,0.953,0.9528,0.9533,0.9536,0.9537,0.9524,0.9524,0.9524,0.9524,0,0,0.9434,0.9451,0.9452,0.9458,0.9469,0.9474,0.9482,0.9491,0.9495,0.9502,0.9509,0.9519,0.952,0.9525,0.9528,0.9533,0.9539,0.9533,0.9534,0.9534,0.955,0.9549,0.955,0.9541,0.9541,0.9541,0.9549,0,0.9438,0.9451,0.9458,0.9469,0.9476,0.9483,0.9489,0.9497,0.9502,0.9509,0.9515,0.9522,0.9523,0.9526,0.9531,0.9537,0.9542,0.9537,0.9547,0.9547,0.9544,0.9551,0.955,0.9557,0.955,0.955,0.955,0,0.9443,0.9452,0.9463,0.9475,0.9479,0.9484,0.9494,0.9501,0.951,0.9514,0.9521,0.9525,0.9533,0.9532,0.9544,0.9541,0.9545,0.9549,0.955,0.955,0.9548,0.9552,0.9559,0.956,0.9552,0.9552,0.9552,0,0.9439,0.9454,0.9464,0.9468,0.9482,0.9487,0.9493,0.9502,0.9508,0.9516,0.952,0.953,0.9535,0.9542,0.9549,0.9547,0.956,0.9559,0.9564,0.9563,0.9565,0.9565,0.9573,0.9569,0.9569,0.9569,0.9569,0,0.9442,0.9449,0.9463,0.9468,0.9477,0.9485,0.9493,0.95,0.9509,0.9516,0.9522,0.9528,0.9537,0.9545,0.955,0.956,0.9562,0.9566,0.9567,0.9565,0.9564,0.9567,0.9567,0.9569,0.9569,0.9569,0.9569,0,0.9439,0.9449,0.9459,0.9473,0.9477,0.9482,0.9494,0.95,0.9507,0.9516,0.9518,0.9529,0.9539,0.9547,0.9559,0.9563,0.9573,0.9574,0.957,0.9571,0.9574,0.9574,0.9584,0.9586,0.9581,0.9581,0.9581,0,0.944,0.9446,0.9461,0.9467,0.9473,0.9482,0.9488,0.9498,0.9504,0.9517,0.9521,0.9532,0.9541,0.9556,0.9565,0.9575,0.9576,0.958,0.9578,0.9576,0.9577,0.9576,0.9577,0.9579,0.9579,0.9579,0.9579,0,0.944,0.9446,0.9455,0.9467,0.9475,0.9484,0.9493,0.9498,0.9509,0.9516,0.9527,0.9534,0.9548,0.9558,0.957,0.9576,0.958,0.958,0.9582,0.9579,0.9577,0.9579,0.957,0.958,0.958,0.958,0.958,0.958,0.944,0.9446,0.9458,0.9468,0.9477,0.9486,0.9493,0.9502,0.9511,0.9524,0.9529,0.954,0.9551,0.9567,0.9574,0.9583,0.9583,0.9585,0.9585,0.9586,0.9585,0.9576,0.9585,0.9585,0.9585,0.9585,0.9585,0,0.9441,0.9449,0.9459,0.9473,0.9482,0.9487,0.9498,0.9505,0.9515,0.9525,0.9535,0.9548,0.9559,0.9569,0.958,0.9586,0.9588,0.9588,0.9588,0.9589,0.9584,0.9582,0.9587,0.9587,0.9587,0.9587,0.9587,0.9587,0.9442,0.9453,0.946,0.9476,0.9484,0.9496,0.9502,0.9511,0.952,0.9534,0.9544,0.9551,0.9562,0.9575,0.9585,0.9588,0.9592,0.9592,0.9595,0.959,0.959,0.9589,0.9587,0.9593,0.9593,0.9599,0.9599,0.9599]},{"header":{"parameterUnit":"m.s-1","parameterCategory":1,"la1":30.2991,"la2":30.254,"lo1":-89.0895,"lo2":-89.0444,"dy":0.0017,"dx":0.0017,"nx":28,"ny":28,"refTime":"2025-04-25T21:00:00:Z","depth":0,"parameterNumber":3,"parameterNumberName":"V-component_of_WINDS"},"data":[0,0,0,0,0,0,0,0,0,0,0,0,0,0,0,0,0,0,0,0,0,0,0,0,0,0,0,0,0,0,0,0,0,0,0,0,0,0,0,0,0,0,0,0,0,0,0,0,0,0,0,0,0,0,0,0,0,0,0.0368,0.0369,0,0.0469,0.047,0.0471,0.0507,0.0506,0.0506,0.0506,0.0613,0.0616,0.0619,0,0,0,0,0,0,0,0,0,0,0,0,0,0.0209,0.0211,0.0368,0.0369,0.037,0.0469,0.047,0.0472,0.0507,0.0506,0.0506,0.0505,0.0612,0.0616,0.062,0,0,0,0,0,0,0,0,0,0,0,0,0,0.0291,0.0212,0.0368,0.04,0.0404,0.0469,0.047,0.0472,0.0507,0.0506,0.0506,0.0505,0.0611,0.0615,0.062,0.0662,0,0,0.0635,0.0637,0,0,0,0,0,0,0,0,0.0286,0.0296,0.0394,0.0398,0.0402,0.0475,0.0454,0.0536,0.0507,0.0468,0.0506,0.0505,0.0568,0.0576,0.0596,0.0667,0.0671,0.0635,0.0638,0.064,0.0642,0,0,0,0,0,0,0,0.028,0.0292,0.0408,0.0395,0.04,0.041,0.0421,0.0469,0.052,0.0471,0.0474,0.0485,0.057,0.0592,0.0599,0.0673,0.0635,0.064,0.0643,0.0644,0.0783,0.0784,0,0,0,0,0,0,0.0269,0.0287,0.0405,0.0411,0.0341,0.0414,0.0426,0.0452,0.052,0.0529,0.0486,0.0487,0.0584,0.0594,0.0603,0.0657,0.064,0.0645,0.0648,0.0782,0.0783,0.0784,0,0,0,0,0,0,0.0265,0.0279,0.0401,0.035,0.0366,0.0417,0.0446,0.0454,0.0476,0.053,0.054,0.0498,0.0584,0.0596,0.0647,0.0661,0.0647,0.0652,0.0781,0.0783,0.0784,0.0764,0,0,0,0,0,0,0.026,0.0277,0.0293,0.035,0.0369,0.0442,0.0447,0.0457,0.0484,0.0486,0.0545,0.0554,0.0584,0.0639,0.0652,0.0667,0.0655,0.078,0.0782,0.0783,0.0764,0.0764,0.0765,0,0,0,0,0,0.0255,0.0284,0.0293,0.0307,0.0389,0.0442,0.0453,0.0486,0.0485,0.0502,0.0536,0.0552,0.0657,0.0644,0.0658,0.0676,0.078,0.0781,0.0783,0.0763,0.0764,0.0765,0,0,0,0,0,0,0.0229,0.0292,0.0303,0.0352,0.0391,0.0448,0.047,0.0486,0.0528,0.0528,0.0568,0.0581,0.0629,0.0657,0.0642,0.072,0.0719,0.0724,0.0699,0.0701,0.0701,0.0694,0.0659,0,0,0,0,0,0.0228,0.0265,0.0319,0.0357,0.0376,0.0419,0.0444,0.0466,0.0509,0.0526,0.0564,0.0606,0.0649,0.0676,0.0718,0.0767,0.0781,0.0786,0.0787,0.0787,0.0791,0.082,0.0823,0.079,0.079,0.079,0,0,0.0229,0.0268,0.0289,0.0353,0.0386,0.0424,0.0433,0.0474,0.0503,0.0532,0.0582,0.0612,0.0661,0.0711,0.0735,0.0737,0.0803,0.079,0.0789,0.0793,0.0822,0.0825,0.0828,0.0791,0.0791,0.0791,0,0,0.025,0.0282,0.0317,0.035,0.0399,0.0428,0.0436,0.0491,0.0511,0.0561,0.0584,0.062,0.0692,0.0727,0.0754,0.0786,0.0803,0.0799,0.0803,0.083,0.0833,0.0835,0.0848,0.0852,0.0802,0.0802,0.0802,0,0.0244,0.0302,0.0334,0.0373,0.04,0.0427,0.0464,0.0494,0.0555,0.0574,0.0574,0.0665,0.0701,0.0759,0.0767,0.0788,0.0799,0.0793,0.0829,0.0832,0.0835,0.0848,0.0852,0.0801,0.0801,0.0802,0.0802,0,0.0293,0.0333,0.0355,0.0412,0.0442,0.048,0.0519,0.0545,0.0564,0.0593,0.0644,0.0687,0.0738,0.0754,0.0773,0.0815,0.0815,0.0821,0.0822,0.0837,0.085,0.0855,0.08,0.0801,0.0801,0.0801,0,0,0.0302,0.0375,0.0383,0.0409,0.0465,0.0497,0.0535,0.0584,0.0607,0.0648,0.0682,0.0742,0.0749,0.0779,0.0803,0.0826,0.085,0.0831,0.0833,0.0834,0.09,0.0896,0.0901,0.0861,0.0862,0.0863,0.0897,0,0.0331,0.04,0.043,0.0486,0.0523,0.0549,0.0583,0.0621,0.0649,0.0686,0.0717,0.0759,0.0764,0.0783,0.0807,0.0842,0.0864,0.084,0.0895,0.0896,0.0883,0.0907,0.0902,0.0932,0.0902,0.0902,0.0903,0,0.0374,0.0413,0.0473,0.0524,0.0541,0.0571,0.0618,0.0652,0.0696,0.0715,0.0748,0.077,0.0813,0.0809,0.087,0.0852,0.0876,0.0897,0.0899,0.0906,0.0901,0.0916,0.0943,0.0948,0.0911,0.091,0.091,0,0.0375,0.0443,0.0488,0.0509,0.057,0.0591,0.0617,0.0661,0.0688,0.0729,0.0748,0.0794,0.082,0.0855,0.0889,0.0883,0.0947,0.0946,0.0964,0.0964,0.0978,0.0977,0.101,0.0991,0.0991,0.0991,0.0991,0,0.0405,0.0441,0.0489,0.0517,0.0558,0.0592,0.0632,0.066,0.0699,0.0733,0.0758,0.079,0.0832,0.087,0.0897,0.0943,0.0954,0.0972,0.0979,0.097,0.0968,0.0988,0.0987,0.0992,0.0992,0.0992,0.0991,0,0.0414,0.0448,0.0498,0.0551,0.0565,0.0593,0.0639,0.0667,0.0695,0.0738,0.0751,0.0796,0.0841,0.0878,0.0938,0.0956,0.1005,0.1012,0.0989,0.0993,0.101,0.1009,0.1058,0.1067,0.1041,0.1041,0.1041,0,0.0431,0.0459,0.0514,0.0538,0.0564,0.0603,0.063,0.0665,0.0693,0.0745,0.0767,0.0814,0.0854,0.0925,0.0964,0.101,0.102,0.1034,0.1027,0.1018,0.1021,0.102,0.1023,0.1035,0.1035,0.1035,0.1035,0,0.0459,0.0474,0.0512,0.0556,0.0588,0.0625,0.0662,0.0681,0.0723,0.0753,0.0799,0.0829,0.089,0.0936,0.0986,0.1015,0.1033,0.1036,0.1044,0.1036,0.1022,0.1031,0.0993,0.1036,0.1036,0.1036,0.1036,0.1036,0.0474,0.05,0.0542,0.0584,0.0616,0.065,0.0679,0.071,0.0749,0.08,0.0818,0.0865,0.0909,0.0978,0.1006,0.1045,0.1047,0.1057,0.1059,0.1062,0.1061,0.1014,0.1054,0.1054,0.1054,0.1054,0.1054,0,0.0503,0.0532,0.057,0.062,0.0654,0.0665,0.0707,0.0734,0.0775,0.0814,0.0852,0.0905,0.095,0.0992,0.1039,0.1062,0.1071,0.1074,0.1073,0.108,0.1056,0.1046,0.1065,0.1065,0.1065,0.1065,0.1065,0.1065,0.0523,0.0568,0.0588,0.0649,0.0677,0.0723,0.0746,0.0778,0.0809,0.0867,0.0904,0.093,0.097,0.1021,0.1063,0.1074,0.1091,0.1091,0.1105,0.1083,0.1081,0.108,0.107,0.1094,0.1094,0.1125,0.1126,0.1126]}]]